Notices

What's New in latest Release from April 7th, 2021:

- Updated Glossary, including Speed of Maximum Gust, and Total Hourly Precipitation

- Updated national and regional climate services offices contacts and prices information

- Addition of station inventory lists for 1981-2010, 1971-2000, and 1961-1990 Normals.

Please note that as of June 10, 2021 UTC dates are available for all years 2004-present, and DBA is working on populating the remaining years (2003 to 1953).

If you haven't already, please take our survey and provide feedback about our website: https://eccc.sondage-survey.ca/f/LanguageSelection.aspx?s=442ca660-fcf1-47c0-95a9-59707d6fd709

Hourly Data Report for April 21, 2004

TORONTO CITY
ONTARIO

43°40'00.000" N
79°24'00.000" W
112.50 m
6158355
71508
XTO

Download Data

Hourly Data (April 2004)
Hourly Data Report for April 21, 2004
TIME
LST
Temp Definition
°C
Dew Point Definition
°C
Rel Hum Definition
%
Precip. Amount Definition
mm

Wind Dir Definition
10's deg

Wind Spd Definition
km/h
Visibility Definition
km
Stn Press Definition
kPa
Hmdx Definition


Wind Chill Definition


Weather Definition


00:00 5.3 0.7 72   LegendMM LegendMM LegendMM 100.08     LegendNANA
01:00 6.1 1.1 70   LegendMM LegendMM LegendMM 99.95     LegendNANA
02:00 6.1 1.9 74   LegendMM LegendMM LegendMM 99.80     LegendNANA
03:00 6.0 2.3 77   LegendMM LegendMM LegendMM 99.71     LegendNANA
04:00 5.8 2.7 80   LegendMM LegendMM LegendMM 99.64     LegendNANA
05:00 5.8 3.9 88   LegendMM LegendMM LegendMM 99.51     LegendNANA
06:00 6.3 4.4 88   LegendMM LegendMM LegendMM 99.45     LegendNANA
07:00 7.3 4.6 83   LegendMM LegendMM LegendMM 99.41     LegendNANA
08:00 10.1 5.8 75   LegendMM LegendMM LegendMM 99.38     LegendNANA
09:00 12.8 7.1 68   LegendMM LegendMM LegendMM 99.33     LegendNANA
10:00 13.7 8.5 71   LegendMM LegendMM LegendMM 99.26     LegendNANA
11:00 15.6 9.7 68   LegendMM LegendMM LegendMM 99.20     LegendNANA
12:00 13.3 11.0 86   LegendMM LegendMM LegendMM 99.22     LegendNANA
13:00 13.0 11.6 91   LegendMM LegendMM LegendMM 99.20     LegendNANA
14:00 14.7 13.0 90   LegendMM LegendMM LegendMM 99.16     LegendNANA
15:00 17.0 13.8 81   LegendMM LegendMM LegendMM 99.10     LegendNANA
16:00 16.0 13.1 83   LegendMM LegendMM LegendMM 99.13     LegendNANA
17:00 14.3 12.7 90   LegendMM LegendMM LegendMM 99.11     LegendNANA
18:00 13.7 13.3 97   LegendMM LegendMM LegendMM 99.15     LegendNANA
19:00 14.4 13.8 96   LegendMM LegendMM LegendMM 99.22     LegendNANA
20:00 12.6 12.1 97   LegendMM LegendMM LegendMM 99.27     LegendNANA
21:00 12.7 12.0 96   LegendMM LegendMM LegendMM 99.34     LegendNANA
22:00 11.1 10.6 97   LegendMM LegendMM LegendMM 99.37     LegendNANA
23:00 12.6 11.9 95   LegendMM LegendMM LegendMM 99.38     LegendNANA

Notes on Data Quality.

Legend

  • E = Estimated
  • M = Missing
  • NA = Not Available*
  • [empty] = Indicates an unobserved value
Date modified: